Time,TemperatureF,DewpointF,PressureIn,WindDirection,WindDirectionDegrees,WindSpeedMPH,WindSpeedGustMPH,Humidity,HourlyPrecipIn,Conditions,Clouds,dailyrainin,SoftwareType,DateUTC
2013-05-20 00:00:00,63.7,61.6,29.47,East,83,0.0,0.0,93,0.01,,,0.00,VWS V14.01,2013-05-20 05:00:00,
2013-05-20 00:05:00,63.7,61.6,29.47,East,83,0.0,0.0,93,0.01,,-RA,0.00,VWS V14.01,2013-05-20 05:05:00,
2013-05-20 00:10:00,63.5,61.4,29.47,East,83,0.0,0.0,93,0.01,,-RA,0.00,VWS V14.01,2013-05-20 05:10:00,
2013-05-20 00:15:00,63.5,61.4,29.46,East,82,0.0,0.0,93,0.01,,-RA,0.00,VWS V14.01,2013-05-20 05:15:00,
2013-05-20 00:20:00,63.5,61.4,29.46,East,82,0.0,0.0,93,0.01,,-RA,0.00,VWS V14.01,2013-05-20 05:20:00,
2013-05-20 00:25:00,63.4,61.3,29.46,East,82,0.0,0.0,93,0.00,,-RA,0.00,VWS V14.01,2013-05-20 05:25:00,
2013-05-20 00:30:00,63.4,61.3,29.45,East,82,0.0,0.0,93,0.00,,-RA,0.00,VWS V14.01,2013-05-20 05:30:00,
2013-05-20 00:35:00,63.2,61.2,29.45,East,82,0.0,0.0,93,0.00,,-RA,0.00,VWS V14.01,2013-05-20 05:35:00,
2013-05-20 00:40:00,63.2,61.2,29.45,East,83,0.0,0.0,93,0.00,,-RA,0.00,VWS V14.01,2013-05-20 05:40:00,
2013-05-20 00:45:00,63.2,61.2,29.45,East,83,0.0,0.0,93,0.00,,-RA,0.00,VWS V14.01,2013-05-20 05:45:00,
2013-05-20 00:50:00,63.2,61.2,29.45,East,83,0.0,0.0,93,0.01,,-RA,0.01,VWS V14.01,2013-05-20 05:50:00,
2013-05-20 00:55:00,63.1,61.0,29.45,East,83,0.0,0.0,93,0.01,,-RA,0.01,VWS V14.01,2013-05-20 05:55:00,
2013-05-20 01:00:00,63.1,61.0,29.44,East,82,0.0,0.0,93,0.01,,-RA,0.01,VWS V14.01,2013-05-20 06:00:00,
2013-05-20 01:05:00,63.1,61.0,29.44,East,83,0.0,0.0,93,0.01,,BKN100,0.01,VWS V14.01,2013-05-20 06:05:00,
2013-05-20 01:10:00,63.1,61.0,29.44,East,82,0.0,0.0,93,0.01,,BKN100,0.01,VWS V14.01,2013-05-20 06:10:00,
2013-05-20 01:15:00,63.1,61.0,29.43,East,83,0.0,3.0,93,0.01,,BKN100,0.01,VWS V14.01,2013-05-20 06:15:00,
2013-05-20 01:20:00,63.1,61.0,29.43,East,83,0.0,0.0,93,0.01,,BKN100,0.01,VWS V14.01,2013-05-20 06:20:00,
2013-05-20 01:25:00,63.1,61.0,29.43,ESE,115,0.0,3.0,93,0.01,,BKN100,0.01,VWS V14.01,2013-05-20 06:25:00,
2013-05-20 01:30:00,63.1,61.0,29.43,ESE,115,0.0,0.0,93,0.01,,BKN100,0.01,VWS V14.01,2013-05-20 06:30:00,
2013-05-20 01:35:00,62.9,60.8,29.43,ESE,118,0.0,0.0,93,0.01,,BKN100,0.01,VWS V14.01,2013-05-20 06:35:00,
2013-05-20 01:40:00,63.1,61.0,29.43,ESE,118,0.0,0.0,93,0.01,,BKN100,0.01,VWS V14.01,2013-05-20 06:40:00,
2013-05-20 01:45:00,63.1,61.0,29.43,SSE,159,0.0,3.0,93,0.01,,BKN100,0.01,VWS V14.01,2013-05-20 06:45:00,
2013-05-20 01:50:00,63.1,61.0,29.43,South,169,0.0,0.0,93,0.01,,-RA,0.01,VWS V14.01,2013-05-20 06:50:00,
2013-05-20 01:55:00,63.1,61.0,29.43,SSE,167,0.0,5.0,93,0.00,,-RA,0.01,VWS V14.01,2013-05-20 06:55:00,
2013-05-20 02:00:00,63.1,61.0,29.44,SSE,168,0.0,0.0,93,0.00,,-RA,0.01,VWS V14.01,2013-05-20 07:00:00,
2013-05-20 02:05:00,63.1,61.0,29.44,SSE,148,5.0,12.0,93,0.00,,-RA,0.01,VWS V14.01,2013-05-20 07:05:00,
2013-05-20 02:10:00,62.9,60.8,29.44,SE,139,6.0,12.0,93,0.01,,-RA,0.02,VWS V14.01,2013-05-20 07:10:00,
2013-05-20 02:15:00,62.9,60.8,29.45,SSE,157,0.0,10.0,93,0.01,,-RA,0.02,VWS V14.01,2013-05-20 07:15:00,
2013-05-20 02:20:00,62.9,60.8,29.45,SSE,155,1.0,9.0,93,0.01,,-RA,0.02,VWS V14.01,2013-05-20 07:20:00,
2013-05-20 02:25:00,62.7,60.7,29.45,SSE,151,0.0,7.0,93,0.01,,-RA,0.02,VWS V14.01,2013-05-20 07:25:00,
2013-05-20 02:30:00,62.7,60.7,29.43,SSE,153,0.0,5.0,93,0.01,,-RA,0.02,VWS V14.01,2013-05-20 07:30:00,
2013-05-20 02:35:00,62.6,60.5,29.43,SE,126,0.0,0.0,93,0.01,,-RA,0.02,VWS V14.01,2013-05-20 07:35:00,
2013-05-20 02:40:00,62.6,60.5,29.43,SE,126,0.0,0.0,93,0.01,,-RA,0.02,VWS V14.01,2013-05-20 07:40:00,
2013-05-20 02:45:00,62.4,60.3,29.43,SE,144,0.0,6.0,93,0.01,,-RA,0.02,VWS V14.01,2013-05-20 07:45:00,
2013-05-20 02:50:00,62.4,60.3,29.43,SSE,156,0.0,0.0,93,0.01,,-RA,0.02,VWS V14.01,2013-05-20 07:50:00,
2013-05-20 02:55:00,62.4,60.3,29.43,SSE,158,0.0,2.0,93,0.01,,-RA,0.02,VWS V14.01,2013-05-20 07:55:00,
2013-05-20 03:00:00,62.3,60.2,29.42,SSE,158,0.0,0.0,93,0.01,,-RA,0.02,VWS V14.01,2013-05-20 08:00:00,
2013-05-20 03:05:00,62.3,60.2,29.42,SSE,158,0.0,0.0,93,0.01,,OVC110,0.02,VWS V14.01,2013-05-20 08:05:00,
2013-05-20 03:10:00,62.3,60.2,29.42,ESE,122,0.0,0.0,93,0.01,,OVC110,0.02,VWS V14.01,2013-05-20 08:10:00,
2013-05-20 03:15:00,62.3,60.2,29.42,ESE,122,0.0,0.0,93,0.00,,OVC110,0.02,VWS V14.01,2013-05-20 08:15:00,
2013-05-20 03:20:00,62.3,60.2,29.42,ESE,122,0.0,0.0,93,0.00,,OVC110,0.02,VWS V14.01,2013-05-20 08:20:00,
2013-05-20 03:25:00,62.1,60.1,29.42,ESE,122,0.0,0.0,93,0.00,,OVC110,0.02,VWS V14.01,2013-05-20 08:25:00,
2013-05-20 03:30:00,62.1,60.1,29.42,ESE,122,0.0,0.0,93,0.00,,OVC110,0.02,VWS V14.01,2013-05-20 08:30:00,
2013-05-20 03:35:00,62.1,60.1,29.42,ESE,122,0.0,0.0,93,0.00,,OVC110,0.02,VWS V14.01,2013-05-20 08:35:00,
2013-05-20 03:40:00,62.1,60.1,29.42,ESE,122,0.0,0.0,93,0.00,,OVC110,0.02,VWS V14.01,2013-05-20 08:40:00,
2013-05-20 03:45:00,62.1,60.1,29.41,ESE,122,0.0,0.0,93,0.00,,OVC110,0.02,VWS V14.01,2013-05-20 08:45:00,
2013-05-20 03:50:00,62.0,60.0,29.41,ESE,122,0.0,0.0,93,0.00,,OVC110,0.02,VWS V14.01,2013-05-20 08:50:00,
2013-05-20 03:55:00,62.0,60.0,29.41,ESE,122,0.0,0.0,93,0.00,,OVC110,0.02,VWS V14.01,2013-05-20 08:55:00,
2013-05-20 04:00:00,62.0,60.0,29.41,ESE,122,0.0,0.0,93,0.00,,OVC110,0.02,VWS V14.01,2013-05-20 09:00:00,
2013-05-20 04:05:00,62.0,60.0,29.41,ESE,122,0.0,0.0,93,0.00,,-RA,0.02,VWS V14.01,2013-05-20 09:05:00,
2013-05-20 04:10:00,62.0,60.0,29.41,ESE,122,0.0,0.0,93,0.00,,-RA,0.02,VWS V14.01,2013-05-20 09:10:00,
2013-05-20 04:15:00,62.0,60.0,29.41,ESE,122,0.0,0.0,93,0.00,,-RA,0.02,VWS V14.01,2013-05-20 09:15:00,
2013-05-20 04:20:00,62.0,60.0,29.41,ESE,122,0.0,0.0,93,0.00,,-RA,0.02,VWS V14.01,2013-05-20 09:20:00,
2013-05-20 04:25:00,62.0,60.0,29.41,ESE,122,0.0,0.0,93,0.00,,-RA,0.02,VWS V14.01,2013-05-20 09:25:00,
2013-05-20 04:30:00,62.0,60.0,29.42,ESE,122,0.0,0.0,93,0.00,,-RA,0.02,VWS V14.01,2013-05-20 09:30:00,
2013-05-20 04:35:00,62.0,60.0,29.42,ESE,122,0.0,0.0,93,0.00,,-RA,0.02,VWS V14.01,2013-05-20 09:35:00,
2013-05-20 04:40:00,62.0,60.0,29.42,ESE,122,0.0,0.0,93,0.00,,-RA,0.02,VWS V14.01,2013-05-20 09:40:00,
2013-05-20 04:45:00,62.1,60.1,29.42,ESE,122,0.0,0.0,93,0.00,,-RA,0.02,VWS V14.01,2013-05-20 09:45:00,
2013-05-20 04:50:00,62.1,60.1,29.42,ESE,122,0.0,0.0,93,0.01,,-RA,0.03,VWS V14.01,2013-05-20 09:50:00,
2013-05-20 04:55:00,62.1,60.1,29.42,ESE,122,0.0,0.0,93,0.01,,-RA,0.03,VWS V14.01,2013-05-20 09:55:00,
2013-05-20 05:00:00,62.1,60.1,29.43,ESE,123,0.0,0.0,93,0.01,,-RA,0.03,VWS V14.01,2013-05-20 10:00:00,
2013-05-20 05:05:00,62.3,60.2,29.43,SE,125,0.0,3.0,93,0.01,,OVC038,0.03,VWS V14.01,2013-05-20 10:05:00,
2013-05-20 05:10:00,62.3,60.2,29.43,SE,146,0.0,1.0,93,0.01,,OVC038,0.03,VWS V14.01,2013-05-20 10:10:00,
2013-05-20 05:15:00,62.3,60.2,29.43,SSE,147,0.0,5.0,93,0.01,,OVC038,0.03,VWS V14.01,2013-05-20 10:15:00,
2013-05-20 05:20:00,62.3,60.2,29.43,SSE,151,0.0,4.0,93,0.01,,OVC038,0.03,VWS V14.01,2013-05-20 10:20:00,
2013-05-20 05:35:00,62.3,60.2,29.43,SSE,150,0.0,7.0,93,0.01,,OVC038,0.03,VWS V14.01,2013-05-20 10:35:00,
2013-05-20 05:45:00,62.3,60.2,29.44,SE,142,0.0,6.0,93,0.02,,OVC038,0.04,VWS V14.01,2013-05-20 10:45:00,
2013-05-20 05:50:00,62.3,60.2,29.44,South,184,0.0,6.0,93,0.02,,OVC038,0.04,VWS V14.01,2013-05-20 10:50:00,
2013-05-20 06:05:00,62.3,60.2,29.44,SSW,200,7.0,11.0,93,0.01,,OVC031,0.04,VWS V14.01,2013-05-20 11:05:00,
2013-05-20 06:10:00,62.4,60.3,29.44,South,182,4.0,9.0,93,0.01,,OVC031,0.04,VWS V14.01,2013-05-20 11:10:00,
2013-05-20 06:20:00,62.3,60.2,29.43,SSE,148,0.0,6.0,93,0.01,,OVC038,0.03,VWS V14.01,2013-05-20 11:20:00,
2013-05-20 06:25:00,62.4,60.3,29.44,SSE,153,5.0,7.0,93,0.01,,OVC031,0.04,VWS V14.01,2013-05-20 11:25:00,
2013-05-20 06:35:00,62.3,60.2,29.43,SSE,150,0.0,10.0,93,0.01,,OVC038,0.03,VWS V14.01,2013-05-20 11:35:00,
2013-05-20 06:50:00,62.3,60.2,29.44,South,182,0.0,7.0,93,0.01,,OVC038,0.04,VWS V14.01,2013-05-20 11:50:00,
2013-05-20 07:10:00,62.4,60.3,29.44,SSE,150,0.0,7.0,93,0.01,,OVC031,0.04,VWS V14.01,2013-05-20 12:10:00,
2013-05-20 07:15:00,62.4,61.0,29.44,South,180,5.0,12.0,95,0.02,,OVC037,0.06,VWS V14.01,2013-05-20 12:15:00,
2013-05-20 07:20:00,62.7,61.2,29.44,SSE,167,4.0,12.0,95,0.02,,OVC037,0.06,VWS V14.01,2013-05-20 12:20:00,
2013-05-20 07:25:00,62.4,60.3,29.43,SSW,200,4.0,12.0,93,0.01,,OVC031,0.04,VWS V14.01,2013-05-20 12:25:00,
2013-05-20 07:35:00,62.4,60.3,29.43,SSE,163,0.0,7.0,93,0.02,,OVC031,0.05,VWS V14.01,2013-05-20 12:35:00,
2013-05-20 07:40:00,62.3,60.2,29.44,SSE,163,0.0,10.0,93,0.03,,OVC031,0.06,VWS V14.01,2013-05-20 12:40:00,
2013-05-20 07:50:00,62.1,60.1,29.44,SSE,161,2.0,13.0,93,0.02,,-RA,0.06,VWS V14.01,2013-05-20 12:50:00,
2013-05-20 07:55:00,62.1,60.1,29.44,SE,144,7.0,15.0,93,0.02,,-RA,0.06,VWS V14.01,2013-05-20 12:55:00,
2013-05-20 08:05:00,62.3,60.8,29.44,South,176,6.0,14.0,95,0.02,,OVC037,0.06,VWS V14.01,2013-05-20 13:05:00,
2013-05-20 08:25:00,62.9,61.2,29.44,South,184,5.0,13.0,94,0.02,,OVC037,0.06,VWS V14.01,2013-05-20 13:25:00,
2013-05-20 08:30:00,63.1,61.3,29.44,SSE,157,5.0,11.0,94,0.02,,OVC037,0.06,VWS V14.01,2013-05-20 13:30:00,
2013-05-20 08:35:00,63.2,61.5,29.44,SSE,161,3.0,12.0,94,0.02,,OVC037,0.06,VWS V14.01,2013-05-20 13:35:00,
2013-05-20 08:40:00,63.2,61.5,29.44,SSW,192,8.0,10.0,94,0.01,,OVC037,0.06,VWS V14.01,2013-05-20 13:40:00,
2013-05-20 08:45:00,63.5,61.8,29.44,SSW,211,5.0,11.0,94,0.00,,OVC100,0.06,VWS V14.01,2013-05-20 13:45:00,
2013-05-20 08:50:00,63.9,61.8,29.44,SSW,192,6.0,13.0,93,0.00,,OVC100,0.06,VWS V14.01,2013-05-20 13:50:00,
2013-05-20 09:00:00,64.2,61.8,29.43,South,188,5.0,11.0,92,0.00,,BKN100,0.06,VWS V14.01,2013-05-20 14:00:00,
2013-05-20 09:05:00,64.5,62.1,29.43,SW,220,3.0,14.0,92,0.00,,BKN100,0.06,VWS V14.01,2013-05-20 14:05:00,
2013-05-20 09:10:00,64.3,61.0,29.43,South,186,4.0,16.0,89,0.00,,BKN100,0.06,VWS V14.01,2013-05-20 14:10:00,
2013-05-20 09:20:00,64.8,60.5,29.43,SW,224,4.0,16.0,86,0.00,,SCT100,0.06,VWS V14.01,2013-05-20 14:20:00,
2013-05-20 09:25:00,65.5,60.5,29.43,SE,128,4.0,15.0,84,0.00,,SCT100,0.06,VWS V14.01,2013-05-20 14:25:00,
2013-05-20 09:30:00,65.8,59.8,29.43,South,188,6.0,13.0,81,0.00,,SCT100,0.06,VWS V14.01,2013-05-20 14:30:00,
2013-05-20 09:40:00,66.6,59.2,29.43,SW,232,0.0,14.0,77,0.00,,SCT100,0.06,VWS V14.01,2013-05-20 14:40:00,
2013-05-20 09:45:00,66.9,58.7,29.43,SSW,202,4.0,13.0,75,0.00,,SCT100,0.06,VWS V14.01,2013-05-20 14:45:00,
2013-05-20 10:00:00,67.8,58.5,29.43,South,185,7.0,11.0,72,0.00,,SCT100,0.06,VWS V14.01,2013-05-20 15:00:00,
2013-05-20 10:05:00,67.9,58.2,29.43,SSW,207,9.0,12.0,71,0.00,,SCT100,0.06,VWS V14.01,2013-05-20 15:05:00,
2013-05-20 10:10:00,68.4,58.6,29.43,SSW,211,3.0,11.0,71,0.00,,SCT100,0.06,VWS V14.01,2013-05-20 15:10:00,
2013-05-20 10:20:00,68.9,57.9,29.43,WSW,246,0.0,13.0,68,0.00,,SCT100,0.06,VWS V14.01,2013-05-20 15:20:00,
2013-05-20 10:25:00,69.3,58.3,29.43,SW,233,0.0,12.0,68,0.00,,SCT100,0.06,VWS V14.01,2013-05-20 15:25:00,
2013-05-20 10:30:00,69.8,59.2,29.43,South,182,5.0,5.0,69,0.00,,SCT100,0.06,VWS V14.01,2013-05-20 15:30:00,
2013-05-20 10:35:00,70.1,58.7,29.43,SSW,202,0.0,9.0,67,0.00,,SCT100,0.06,VWS V14.01,2013-05-20 15:35:00,
2013-05-20 10:45:00,70.3,58.0,29.42,SW,214,0.0,13.0,65,0.00,,SCT100,0.06,VWS V14.01,2013-05-20 15:45:00,
2013-05-20 10:50:00,70.4,57.7,29.42,SW,214,0.0,12.0,64,0.00,,SCT100,0.06,VWS V14.01,2013-05-20 15:50:00,
2013-05-20 11:00:00,70.9,58.1,29.42,ESE,103,0.0,11.0,64,0.00,,FEW028,0.06,VWS V14.01,2013-05-20 16:00:00,
2013-05-20 11:10:00,71.6,58.3,29.42,SW,219,0.0,11.0,63,0.00,,FEW028,0.06,VWS V14.01,2013-05-20 16:10:00,
2013-05-20 11:15:00,72.0,57.8,29.42,SW,226,0.0,9.0,61,0.00,,FEW028,0.06,VWS V14.01,2013-05-20 16:15:00,
2013-05-20 11:20:00,71.8,56.7,29.42,SE,146,0.0,11.0,59,0.00,,FEW028,0.06,VWS V14.01,2013-05-20 16:20:00,
2013-05-20 11:25:00,71.6,57.9,29.42,SSW,196,1.0,11.0,62,0.00,,FEW028,0.06,VWS V14.01,2013-05-20 16:25:00,
2013-05-20 11:30:00,71.5,58.3,29.42,ESE,121,0.0,10.0,63,0.00,,FEW028,0.06,VWS V14.01,2013-05-20 16:30:00,
2013-05-20 11:35:00,71.3,58.1,29.42,SSE,165,4.0,12.0,63,0.00,,FEW028,0.06,VWS V14.01,2013-05-20 16:35:00,
2013-05-20 11:40:00,70.9,57.7,29.43,SE,129,0.0,13.0,63,0.00,,FEW028,0.06,VWS V14.01,2013-05-20 16:40:00,
2013-05-20 11:45:00,70.8,58.0,29.43,South,169,0.0,13.0,64,0.00,,FEW028,0.06,VWS V14.01,2013-05-20 16:45:00,
2013-05-20 11:50:00,70.4,58.1,29.43,South,189,6.0,13.0,65,0.00,,FEW028,0.06,VWS V14.01,2013-05-20 16:50:00,
2013-05-20 11:55:00,69.9,57.6,29.42,ESE,112,5.0,18.0,65,0.00,,FEW028,0.06,VWS V14.01,2013-05-20 16:55:00,
2013-05-20 12:00:00,69.9,57.6,29.42,SSE,163,2.0,15.0,65,0.00,,OVC040,0.06,VWS V14.01,2013-05-20 17:00:00,
2013-05-20 12:05:00,69.8,57.5,29.42,South,170,6.0,16.0,65,0.00,,OVC040,0.06,VWS V14.01,2013-05-20 17:05:00,
2013-05-20 12:15:00,69.8,57.5,29.42,South,171,4.0,17.0,65,0.00,,OVC040,0.06,VWS V14.01,2013-05-20 17:15:00,
2013-05-20 12:25:00,70.4,58.1,29.42,SSW,213,3.0,9.0,65,0.00,,OVC040,0.06,VWS V14.01,2013-05-20 17:25:00,
2013-05-20 12:30:00,70.6,57.4,29.42,SSW,193,1.0,19.0,63,0.00,,OVC040,0.06,VWS V14.01,2013-05-20 17:30:00,
2013-05-20 12:35:00,70.8,58.5,29.42,SSW,202,0.0,15.0,65,0.00,,OVC040,0.06,VWS V14.01,2013-05-20 17:35:00,
2013-05-20 12:45:00,72.3,58.6,29.42,SW,232,3.0,12.0,62,0.00,,OVC040,0.06,VWS V14.01,2013-05-20 17:45:00,
2013-05-20 12:50:00,72.1,57.9,29.42,SSW,204,0.0,13.0,61,0.00,,OVC040,0.06,VWS V14.01,2013-05-20 17:50:00,
2013-05-20 13:00:00,71.5,57.8,29.42,SSW,202,0.0,11.0,62,0.00,,BKN085,0.06,VWS V14.01,2013-05-20 18:00:00,
2013-05-20 13:05:00,71.1,57.4,29.42,SSW,203,0.0,13.0,62,0.00,,BKN085,0.06,VWS V14.01,2013-05-20 18:05:00,
2013-05-20 13:10:00,70.8,57.6,29.42,SSE,153,5.0,14.0,63,0.00,,BKN085,0.06,VWS V14.01,2013-05-20 18:10:00,
2013-05-20 13:15:00,70.4,57.7,29.42,SE,137,6.0,12.0,64,0.00,,BKN085,0.06,VWS V14.01,2013-05-20 18:15:00,
2013-05-20 13:25:00,69.6,57.8,29.43,SE,144,3.0,14.0,66,0.00,,BKN085,0.06,VWS V14.01,2013-05-20 18:25:00,
2013-05-20 13:30:00,69.4,57.6,29.43,South,169,3.0,17.0,66,0.00,,BKN085,0.06,VWS V14.01,2013-05-20 18:30:00,
2013-05-20 13:35:00,69.4,58.0,29.43,South,184,6.0,13.0,67,0.00,,BKN085,0.06,VWS V14.01,2013-05-20 18:35:00,
2013-05-20 13:40:00,69.3,57.5,29.43,SSE,165,2.0,17.0,66,0.00,,BKN085,0.06,VWS V14.01,2013-05-20 18:40:00,
2013-05-20 13:45:00,69.3,57.9,29.43,SSE,162,3.0,16.0,67,0.00,,BKN085,0.06,VWS V14.01,2013-05-20 18:45:00,
2013-05-20 13:50:00,68.8,58.2,29.43,South,171,10.0,15.0,69,0.00,,BKN085,0.06,VWS V14.01,2013-05-20 18:50:00,
2013-05-20 14:00:00,68.6,58.8,29.43,South,169,2.0,11.0,71,0.00,,-RA,0.06,VWS V14.01,2013-05-20 19:00:00,
2013-05-20 14:05:00,68.6,58.4,29.43,SSW,212,2.0,16.0,70,0.00,,-RA,0.06,VWS V14.01,2013-05-20 19:05:00,
2013-05-20 14:10:00,68.8,58.6,29.43,SW,233,0.0,10.0,70,0.00,,-RA,0.06,VWS V14.01,2013-05-20 19:10:00,
2013-05-20 14:15:00,69.1,58.5,29.43,SSW,204,0.0,14.0,69,0.00,,-RA,0.06,VWS V14.01,2013-05-20 19:15:00,
2013-05-20 14:20:00,69.6,59.0,29.43,SSW,194,6.0,10.0,69,0.00,,-RA,0.06,VWS V14.01,2013-05-20 19:20:00,
2013-05-20 14:25:00,70.3,59.2,29.43,SSE,163,8.0,12.0,68,0.00,,-RA,0.06,VWS V14.01,2013-05-20 19:25:00,
2013-05-20 14:30:00,70.6,59.5,29.43,SE,140,1.0,16.0,68,0.00,,-RA,0.06,VWS V14.01,2013-05-20 19:30:00,
2013-05-20 14:35:00,70.8,59.7,29.43,South,172,12.0,15.0,68,0.00,,-RA,0.06,VWS V14.01,2013-05-20 19:35:00,
2013-05-20 14:40:00,69.9,59.3,29.43,SSW,194,5.0,19.0,69,0.00,,-RA,0.06,VWS V14.01,2013-05-20 19:40:00,
2013-05-20 14:50:00,69.1,60.1,29.43,South,177,8.0,15.0,73,0.00,,-RA,0.06,VWS V14.01,2013-05-20 19:50:00,
2013-05-20 15:00:00,68.9,59.1,29.43,South,170,6.0,15.0,71,0.00,,BKN049,0.06,VWS V14.01,2013-05-20 20:00:00,
2013-05-20 15:05:00,69.8,60.4,29.43,South,184,0.0,11.0,72,0.00,,BKN049,0.06,VWS V14.01,2013-05-20 20:05:00,
2013-05-20 15:15:00,70.4,60.2,29.43,South,182,13.0,16.0,70,0.00,,BKN049,0.06,VWS V14.01,2013-05-20 20:15:00,
2013-05-20 15:20:00,69.4,60.4,29.43,SSW,198,6.0,18.0,73,0.00,,BKN049,0.06,VWS V14.01,2013-05-20 20:20:00,
2013-05-20 15:25:00,69.3,61.0,29.44,SSE,166,9.0,17.0,75,0.00,,BKN049,0.06,VWS V14.01,2013-05-20 20:25:00,
2013-05-20 15:30:00,69.4,60.8,29.44,SSW,194,13.0,14.0,74,0.00,,BKN049,0.06,VWS V14.01,2013-05-20 20:30:00,
2013-05-20 15:40:00,69.1,59.7,29.44,SW,230,2.0,13.0,72,0.00,,BKN049,0.06,VWS V14.01,2013-05-20 20:40:00,
2013-05-20 15:45:00,68.9,59.5,29.44,SW,223,0.0,22.0,72,0.00,,BKN049,0.06,VWS V14.01,2013-05-20 20:45:00,
2013-05-20 15:50:00,68.9,59.9,29.44,South,190,1.0,14.0,73,0.00,,BKN049,0.06,VWS V14.01,2013-05-20 20:50:00,
2013-05-20 16:00:00,69.4,58.8,29.44,SSW,200,1.0,18.0,69,0.00,,BKN065,0.06,VWS V14.01,2013-05-20 21:00:00,
2013-05-20 16:05:00,69.3,58.7,29.44,SW,234,0.0,17.0,69,0.00,,BKN065,0.06,VWS V14.01,2013-05-20 21:05:00,
2013-05-20 16:10:00,69.3,58.7,29.45,SSW,199,8.0,11.0,69,0.00,,BKN065,0.06,VWS V14.01,2013-05-20 21:10:00,
2013-05-20 16:15:00,69.3,58.7,29.45,SW,235,11.0,17.0,69,0.00,,BKN065,0.06,VWS V14.01,2013-05-20 21:15:00,
2013-05-20 16:20:00,69.3,58.3,29.45,SW,219,1.0,16.0,68,0.00,,BKN065,0.06,VWS V14.01,2013-05-20 21:20:00,
2013-05-20 16:25:00,69.3,58.7,29.46,SW,223,15.0,15.0,69,0.00,,BKN065,0.06,VWS V14.01,2013-05-20 21:25:00,
2013-05-20 16:35:00,67.6,59.8,29.46,SW,224,0.0,1.0,76,0.02,,OVC065,0.08,VWS V14.01,2013-05-20 21:35:00,
2013-05-20 16:40:00,67.4,60.3,29.46,WSW,239,0.0,2.0,78,0.02,,OVC065,0.08,VWS V14.01,2013-05-20 21:40:00,
2013-05-20 16:45:00,67.4,60.3,29.46,SW,218,0.0,12.0,78,0.02,,BKN060,0.08,VWS V14.01,2013-05-20 21:45:00,
2013-05-20 16:55:00,68.1,60.3,29.46,SSW,211,0.0,13.0,76,0.02,,BKN060,0.08,VWS V14.01,2013-05-20 21:55:00,
2013-05-20 17:00:00,68.6,60.0,29.46,SSW,198,0.0,1.0,74,0.02,,FEW060,0.08,VWS V14.01,2013-05-20 22:00:00,
2013-05-20 17:05:00,69.1,59.7,29.46,WSW,239,7.0,11.0,72,0.02,,FEW060,0.08,VWS V14.01,2013-05-20 22:05:00,
2013-05-20 17:10:00,69.4,58.8,29.46,SW,225,3.0,14.0,69,0.02,,FEW060,0.08,VWS V14.01,2013-05-20 22:10:00,
2013-05-20 17:20:00,69.9,57.2,29.46,SW,214,4.0,14.0,64,0.02,,FEW060,0.08,VWS V14.01,2013-05-20 22:20:00,
2013-05-20 17:30:00,70.3,57.1,29.46,SW,235,0.0,9.0,63,0.02,,FEW060,0.08,VWS V14.01,2013-05-20 22:30:00,
2013-05-20 17:35:00,70.6,56.5,29.46,SSW,192,4.0,15.0,61,0.00,,FEW060,0.08,VWS V14.01,2013-05-20 22:35:00,
2013-05-20 17:40:00,70.8,56.2,29.46,SW,218,6.0,17.0,60,0.00,,FEW060,0.08,VWS V14.01,2013-05-20 22:40:00,
2013-05-20 17:45:00,70.9,56.8,29.46,SW,223,3.0,16.0,61,0.00,,FEW060,0.08,VWS V14.01,2013-05-20 22:45:00,
2013-05-20 17:55:00,70.9,56.8,29.46,SSW,195,2.0,14.0,61,0.00,,FEW060,0.08,VWS V14.01,2013-05-20 22:55:00,
2013-05-20 18:00:00,70.8,56.7,29.46,South,186,1.0,15.0,61,0.00,,OVC070,0.08,VWS V14.01,2013-05-20 23:00:00,
2013-05-20 18:05:00,70.8,56.2,29.46,South,175,0.0,6.0,60,0.00,,OVC070,0.08,VWS V14.01,2013-05-20 23:05:00,
2013-05-20 18:10:00,70.8,55.8,29.46,SW,219,0.0,1.0,59,0.00,,OVC070,0.08,VWS V14.01,2013-05-20 23:10:00,
2013-05-20 18:20:00,70.8,55.8,29.46,SW,214,0.0,1.0,59,0.00,,OVC070,0.08,VWS V14.01,2013-05-20 23:20:00,
2013-05-20 18:25:00,70.8,55.8,29.46,SW,223,4.0,14.0,59,0.00,,OVC070,0.08,VWS V14.01,2013-05-20 23:25:00,
2013-05-20 18:35:00,70.9,56.3,29.46,South,188,0.0,1.0,60,0.00,,OVC070,0.08,VWS V14.01,2013-05-20 23:35:00,
2013-05-20 18:40:00,70.9,55.9,29.46,South,188,1.0,13.0,59,0.00,,OVC070,0.08,VWS V14.01,2013-05-20 23:40:00,
2013-05-20 18:45:00,70.9,55.9,29.46,SW,215,5.0,12.0,59,0.00,,OVC070,0.08,VWS V14.01,2013-05-20 23:45:00,
2013-05-20 18:50:00,70.8,55.8,29.46,South,173,0.0,12.0,59,0.00,,OVC070,0.08,VWS V14.01,2013-05-20 23:50:00,
2013-05-20 18:55:00,70.8,55.8,29.46,SSW,200,0.0,1.0,59,0.00,,OVC070,0.08,VWS V14.01,2013-05-20 23:55:00,
2013-05-20 19:05:00,70.4,55.9,29.46,SSE,165,0.0,1.0,60,0.00,,OVC085,0.08,VWS V14.01,2013-05-21 00:05:00,
2013-05-20 19:10:00,70.3,55.8,29.46,SSE,149,0.0,0.0,60,0.00,,OVC085,0.08,VWS V14.01,2013-05-21 00:10:00,
2013-05-20 19:15:00,70.3,55.8,29.46,SSW,209,0.0,0.0,60,0.00,,OVC085,0.08,VWS V14.01,2013-05-21 00:15:00,
2013-05-20 19:20:00,70.3,56.2,29.46,SSE,153,0.0,1.0,61,0.00,,OVC085,0.08,VWS V14.01,2013-05-21 00:20:00,
2013-05-20 19:25:00,70.1,56.0,29.46,South,182,0.0,1.0,61,0.00,,OVC085,0.08,VWS V14.01,2013-05-21 00:25:00,
2013-05-20 19:30:00,69.9,55.8,29.46,South,183,0.0,1.0,61,0.00,,OVC085,0.08,VWS V14.01,2013-05-21 00:30:00,
2013-05-20 19:35:00,69.9,56.3,29.46,South,176,0.0,0.0,62,0.00,,OVC085,0.08,VWS V14.01,2013-05-21 00:35:00,
2013-05-20 19:40:00,69.8,56.2,29.46,South,180,0.0,0.0,62,0.00,,OVC085,0.08,VWS V14.01,2013-05-21 00:40:00,
2013-05-20 19:45:00,69.6,56.5,29.46,SSW,201,0.0,0.0,63,0.00,,OVC085,0.08,VWS V14.01,2013-05-21 00:45:00,
2013-05-20 19:50:00,69.6,56.5,29.46,SSE,153,0.0,0.0,63,0.00,,OVC085,0.08,VWS V14.01,2013-05-21 00:50:00,
2013-05-20 20:00:00,69.4,56.3,29.46,South,171,0.0,0.0,63,0.00,,OVC085,0.08,VWS V14.01,2013-05-21 01:00:00,
2013-05-20 20:05:00,69.4,56.3,29.46,SSE,164,0.0,0.0,63,0.00,,OVC095,0.08,VWS V14.01,2013-05-21 01:05:00,
2013-05-20 20:10:00,69.3,56.2,29.46,SSE,158,0.0,0.0,63,0.00,,OVC095,0.08,VWS V14.01,2013-05-21 01:10:00,
2013-05-20 20:20:00,69.1,55.5,29.46,South,171,0.0,0.0,62,0.00,,OVC095,0.08,VWS V14.01,2013-05-21 01:20:00,
2013-05-20 20:25:00,69.1,55.5,29.46,South,182,0.0,0.0,62,0.00,,OVC095,0.08,VWS V14.01,2013-05-21 01:25:00,
2013-05-20 20:30:00,69.1,55.5,29.46,SSE,159,0.0,0.0,62,0.00,,OVC095,0.08,VWS V14.01,2013-05-21 01:30:00,
2013-05-20 20:35:00,68.9,55.4,29.46,SSE,161,0.0,0.0,62,0.00,,OVC095,0.08,VWS V14.01,2013-05-21 01:35:00,
2013-05-20 20:40:00,68.9,55.8,29.46,SSE,161,0.0,0.0,63,0.00,,OVC095,0.08,VWS V14.01,2013-05-21 01:40:00,
2013-05-20 20:50:00,68.8,56.1,29.46,SSE,161,0.0,0.0,64,0.00,,OVC095,0.08,VWS V14.01,2013-05-21 01:50:00,
2013-05-20 20:55:00,68.6,56.0,29.46,ESE,122,0.0,0.0,64,0.00,,OVC095,0.08,VWS V14.01,2013-05-21 01:55:00,
2013-05-20 21:00:00,68.6,56.4,29.46,SSE,150,0.0,0.0,65,0.00,,OVC095,0.08,VWS V14.01,2013-05-21 02:00:00,
2013-05-20 21:05:00,68.4,56.2,29.46,SE,135,0.0,0.0,65,0.00,,BKN095,0.08,VWS V14.01,2013-05-21 02:05:00,
2013-05-20 21:10:00,68.3,56.5,29.46,SE,135,0.0,0.0,66,0.00,,BKN095,0.08,VWS V14.01,2013-05-21 02:10:00,
2013-05-20 21:15:00,68.1,56.3,29.45,ESE,119,0.0,0.0,66,0.00,,BKN095,0.08,VWS V14.01,2013-05-21 02:15:00,
2013-05-20 21:25:00,67.4,56.5,29.45,ESE,117,0.0,0.0,68,0.00,,BKN095,0.08,VWS V14.01,2013-05-21 02:25:00,
2013-05-20 21:30:00,67.3,56.4,29.46,ESE,114,0.0,0.0,68,0.00,,BKN095,0.08,VWS V14.01,2013-05-21 02:30:00,
2013-05-20 21:35:00,66.9,56.4,29.46,ESE,113,0.0,0.0,69,0.00,,BKN095,0.08,VWS V14.01,2013-05-21 02:35:00,
2013-05-20 21:45:00,66.6,56.5,29.46,ESE,113,0.0,0.0,70,0.00,,BKN095,0.08,VWS V14.01,2013-05-21 02:45:00,
2013-05-20 21:50:00,66.6,56.9,29.46,SE,134,0.0,0.0,71,0.00,,BKN095,0.08,VWS V14.01,2013-05-21 02:50:00,
2013-05-20 21:55:00,66.4,56.7,29.46,ESE,113,0.0,0.0,71,0.00,,BKN095,0.08,VWS V14.01,2013-05-21 02:55:00,
2013-05-20 22:05:00,66.4,57.1,29.46,SE,130,0.0,0.0,72,0.00,,OVC100,0.08,VWS V14.01,2013-05-21 03:05:00,
2013-05-20 22:10:00,66.4,57.1,29.46,ESE,121,0.0,0.0,72,0.00,,OVC100,0.08,VWS V14.01,2013-05-21 03:10:00,
2013-05-20 22:15:00,66.4,57.5,29.46,East,79,0.0,0.0,73,0.00,,OVC100,0.08,VWS V14.01,2013-05-21 03:15:00,
2013-05-20 22:25:00,66.6,58.1,29.46,SSE,153,0.0,0.0,74,0.00,,OVC100,0.08,VWS V14.01,2013-05-21 03:25:00,
2013-05-20 22:30:00,66.6,58.8,29.47,SSE,156,0.0,0.0,76,0.00,,-RA,0.08,VWS V14.01,2013-05-21 03:30:00,
2013-05-20 22:35:00,66.4,59.0,29.47,SSE,167,0.0,0.0,77,0.01,,-RA,0.09,VWS V14.01,2013-05-21 03:35:00,
2013-05-20 22:40:00,66.1,59.4,29.47,SW,236,0.0,0.0,79,0.03,,-RA,0.11,VWS V14.01,2013-05-21 03:40:00,
2013-05-20 22:45:00,65.8,59.5,29.47,SW,236,0.0,0.0,80,0.05,,-RA,0.13,VWS V14.01,2013-05-21 03:45:00,
2013-05-20 22:50:00,65.3,59.3,29.47,SW,236,0.0,0.0,81,0.06,,-RA,0.14,VWS V14.01,2013-05-21 03:50:00,
2013-05-20 23:00:00,64.0,58.7,29.46,North,5,0.0,0.0,83,0.08,,-RA,0.16,VWS V14.01,2013-05-21 04:00:00,
2013-05-20 23:05:00,63.7,59.1,29.46,North,5,0.0,0.0,85,0.09,,RA,0.17,VWS V14.01,2013-05-21 04:05:00,
2013-05-20 23:10:00,63.5,58.9,29.46,SSE,153,0.0,0.0,85,0.10,,RA,0.18,VWS V14.01,2013-05-21 04:10:00,
2013-05-20 23:15:00,63.2,59.0,29.44,SE,141,0.0,0.0,86,0.11,,RA,0.19,VWS V14.01,2013-05-21 04:15:00,
2013-05-20 23:20:00,63.1,58.8,29.44,South,180,0.0,0.0,86,0.12,,RA,0.20,VWS V14.01,2013-05-21 04:20:00,
2013-05-20 23:25:00,62.7,58.5,29.44,SSE,163,0.0,0.0,86,0.14,,RA,0.22,VWS V14.01,2013-05-21 04:25:00,
2013-05-20 23:30:00,62.4,58.5,29.43,ESE,111,0.0,0.0,87,0.16,,RA,0.24,VWS V14.01,2013-05-21 04:30:00,
2013-05-20 23:35:00,62.1,58.2,29.43,East,89,0.0,0.0,87,0.17,,RA,0.25,VWS V14.01,2013-05-21 04:35:00,
2013-05-20 23:40:00,62.0,58.4,29.43,East,79,0.0,0.0,88,0.16,,RA,0.25,VWS V14.01,2013-05-21 04:40:00,
2013-05-20 23:45:00,61.8,58.5,29.43,ESE,115,0.0,0.0,89,0.14,,RA,0.25,VWS V14.01,2013-05-21 04:45:00,
2013-05-20 23:50:00,61.8,58.5,29.43,South,169,0.0,0.0,89,0.12,,RA,0.25,VWS V14.01,2013-05-21 04:50:00,
2013-05-20 23:55:00,61.6,58.3,29.43,SW,223,0.0,0.0,89,0.11,,RA,0.25,VWS V14.01,2013-05-21 04:55:00,